| time (UTC) | temp F | wind direction | speed MPH | gust MPH | rain 1hr in | rain 24hr in | rain mn in | humidity % | barometer mb |
| 20260504110357 | 47 | 252 | 0.0 | 0.0 | 0.00 | 0.00 | 0.00 | 92 | 1013.8 |
| 20260504100315 | 46 | 249 | 0.0 | 0.0 | 0.00 | 0.00 | 0.00 | 91 | 1013.5 |
| 20260504081708 | 50 | 249 | 0.0 | 0.0 | 0.00 | 0.00 | 0.00 | 67 | 1014.8 |
| 20260504081204 | 51 | 254 | 0.0 | 0.0 | 0.00 | 0.00 | 0.00 | 69 | 1014.6 |
| 20260504080701 | 51 | 232 | 0.0 | 0.0 | 0.00 | 0.00 | 0.00 | 66 | 1014.6 |
| 20260504080157 | 51 | 239 | 0.0 | 0.0 | 0.00 | 0.00 | 0.00 | 68 | 1014.7 |
| 20260504070125 | 47 | 243 | 0.0 | 0.0 | 0.00 | 0.00 | 0.00 | 82 | 1014.8 |
| 20260504050514 | 45 | 251 | 0.0 | 0.0 | 0.00 | 0.00 | 0.00 | 84 | 1015.2 |
| 20260504050011 | 45 | 251 | 0.0 | 0.0 | 0.00 | 0.00 | 0.00 | 84 | 1015.1 |
| 20260504045508 | 45 | 255 | 0.0 | 0.0 | 0.00 | 0.00 | 0.00 | 84 | 1015.2 |
| 20260504045003 | 45 | 255 | 0.0 | 0.0 | 0.00 | 0.00 | 0.00 | 84 | 1015.0 |
| 20260504044501 | 45 | 290 | 0.0 | 0.0 | 0.00 | 0.00 | 0.00 | 84 | 1015.0 |
| 20260504043958 | 45 | 255 | 0.0 | 0.0 | 0.00 | 0.00 | 0.00 | 84 | 1015.1 |
| 20260504043454 | 45 | 253 | 0.0 | 0.0 | 0.00 | 0.00 | 0.00 | 83 | 1015.0 |
| 20260504042952 | 45 | 251 | 0.0 | 1.0 | 0.00 | 0.00 | 0.00 | 82 | 1015.2 |
| 20260504042448 | 46 | 265 | 1.0 | 1.0 | 0.00 | 0.00 | 0.00 | 82 | 1015.0 |
| 20260504041945 | 46 | 248 | 0.0 | 0.0 | 0.00 | 0.00 | 0.00 | 81 | 1015.1 |
| 20260504041441 | 46 | 244 | 0.0 | 0.0 | 0.00 | 0.00 | 0.00 | 81 | 1015.2 |
| 20260504040937 | 46 | 249 | 0.0 | 0.0 | 0.00 | 0.00 | 0.00 | 82 | 1015.2 |
| 20260504040435 | 45 | 258 | 0.0 | 0.0 | 0.00 | 0.00 | 0.00 | 81 | 1015.3 |
| 20260504035931 | 45 | 250 | 0.0 | 0.0 | 0.00 | 0.00 | 0.00 | 81 | 1015.0 |
| 20260504035429 | 46 | 257 | 0.0 | 0.0 | 0.00 | 0.00 | 0.00 | 81 | 1015.3 |
| 20260504034925 | 46 | 269 | 0.0 | 0.0 | 0.00 | 0.00 | 0.00 | 80 | 1015.1 |
| 20260504034423 | 46 | 251 | 0.0 | 0.0 | 0.00 | 0.00 | 0.00 | 80 | 1015.3 |
| 20260504033920 | 46 | 256 | 0.0 | 0.0 | 0.00 | 0.00 | 0.00 | 80 | 1015.2 |
| 20260504033418 | 46 | 255 | 0.0 | 0.0 | 0.00 | 0.00 | 0.00 | 80 | 1015.3 |
| 20260504032914 | 45 | 256 | 0.0 | 0.0 | 0.00 | 0.00 | 0.00 | 79 | 1015.3 |
| 20260504032411 | 45 | 259 | 0.0 | 1.0 | 0.00 | 0.00 | 0.00 | 80 | 1015.4 |
| 20260504031908 | 45 | 252 | 0.0 | 0.0 | 0.00 | 0.00 | 0.00 | 81 | 1015.5 |
| 20260504031405 | 45 | 256 | 0.0 | 0.0 | 0.00 | 0.00 | 0.00 | 82 | 1015.5 |
| 20260504030901 | 45 | 252 | 0.0 | 0.0 | 0.00 | 0.00 | 0.00 | 81 | 1015.4 |
| 20260504030359 | 45 | 250 | 0.0 | 0.0 | 0.00 | 0.00 | 0.00 | 80 | 1015.3 |
| 20260504025854 | 44 | 246 | 0.0 | 0.0 | 0.00 | 0.00 | 0.00 | 81 | 1015.2 |
| 20260504025352 | 44 | 245 | 0.0 | 0.0 | 0.00 | 0.00 | 0.00 | 80 | 1015.5 |
| 20260504024848 | 44 | 238 | 0.0 | 0.0 | 0.00 | 0.00 | 0.00 | 80 | 1015.5 |
| 20260504024345 | 44 | 249 | 0.0 | 0.0 | 0.00 | 0.00 | 0.00 | 80 | 1015.7 |
| 20260504023842 | 44 | 249 | 0.0 | 0.0 | 0.00 | 0.00 | 0.00 | 78 | 1015.5 |
| 20260504023339 | 44 | 249 | 0.0 | 0.0 | 0.00 | 0.00 | 0.00 | 78 | 1015.5 |
| 20260504022834 | 45 | 251 | 0.0 | 0.0 | 0.00 | 0.00 | 0.00 | 77 | 1015.3 |
| 20260504022331 | 45 | 248 | 0.0 | 0.0 | 0.00 | 0.00 | 0.00 | 76 | 1015.5 |
| 20260504021828 | 46 | 248 | 0.0 | 0.0 | 0.00 | 0.00 | 0.00 | 75 | 1015.3 |
| 20260504021325 | 46 | 248 | 0.0 | 0.0 | 0.00 | 0.00 | 0.00 | 74 | 1015.6 |
| 20260504020822 | 46 | 248 | 0.0 | 0.0 | 0.00 | 0.00 | 0.00 | 73 | 1015.3 |
| 20260504020319 | 46 | 250 | 0.0 | 0.0 | 0.00 | 0.00 | 0.00 | 72 | 1015.4 |
| 20260504015815 | 47 | 256 | 0.0 | 0.0 | 0.00 | 0.00 | 0.00 | 73 | 1015.2 |
| 20260504015311 | 47 | 250 | 0.0 | 0.0 | 0.00 | 0.00 | 0.00 | 71 | 1015.1 |
| 20260504014808 | 47 | 249 | 0.0 | 0.0 | 0.00 | 0.00 | 0.00 | 71 | 1015.2 |
| 20260504014303 | 48 | 249 | 0.0 | 0.0 | 0.00 | 0.00 | 0.00 | 69 | 1015.3 |
| 20260504013801 | 48 | 249 | 0.0 | 0.0 | 0.00 | 0.00 | 0.00 | 68 | 1015.2 |
| 20260504013259 | 48 | 252 | 0.0 | 0.0 | 0.00 | 0.00 | 0.00 | 67 | 1015.2 |
| 20260504012755 | 49 | 252 | 0.0 | 0.0 | 0.00 | 0.00 | 0.00 | 67 | 1015.5 |
| 20260504012253 | 49 | 251 | 0.0 | 0.0 | 0.00 | 0.00 | 0.00 | 64 | 1015.3 |
| 20260504011750 | 49 | 251 | 0.0 | 0.0 | 0.00 | 0.00 | 0.00 | 63 | 1015.3 |
| 20260504011246 | 50 | 251 | 0.0 | 0.0 | 0.00 | 0.00 | 0.00 | 62 | 1015.4 |
| 20260504010743 | 50 | 251 | 0.0 | 0.0 | 0.00 | 0.00 | 0.00 | 60 | 1015.3 |
| 20260504010238 | 51 | 253 | 0.0 | 0.0 | 0.00 | 0.00 | 0.00 | 60 | 1015.4 |
| 20260504005735 | 51 | 251 | 0.0 | 0.0 | 0.00 | 0.00 | 0.00 | 61 | 1015.2 |
| 20260504005232 | 51 | 252 | 0.0 | 0.0 | 0.00 | 0.00 | 0.00 | 57 | 1015.3 |
| 20260504004730 | 52 | 251 | 0.0 | 0.0 | 0.00 | 0.00 | 0.00 | 55 | 1015.3 |
| 20260504004227 | 52 | 252 | 0.0 | 0.0 | 0.00 | 0.00 | 0.00 | 54 | 1015.3 |
| 20260504003723 | 53 | 251 | 0.0 | 0.0 | 0.00 | 0.00 | 0.00 | 52 | 1015.2 |
| 20260504003220 | 53 | 250 | 0.0 | 0.0 | 0.00 | 0.00 | 0.00 | 51 | 1015.1 |
| 20260504002717 | 54 | 240 | 0.0 | 0.0 | 0.00 | 0.00 | 0.00 | 48 | 1015.0 |
| 20260504002214 | 54 | 240 | 0.0 | 0.0 | 0.00 | 0.00 | 0.00 | 47 | 1015.1 |
| 20260504001712 | 55 | 235 | 1.0 | 1.0 | 0.00 | 0.00 | 0.00 | 47 | 1015.1 |
| 20260504001209 | 55 | 240 | 0.0 | 0.0 | 0.00 | 0.00 | 0.00 | 47 | 1015.0 |
| 20260504000705 | 56 | 235 | 0.0 | 0.0 | 0.00 | 0.00 | 0.00 | 47 | 1015.0 |
| 20260504000204 | 56 | 235 | 0.0 | 0.0 | 0.00 | 0.00 | 0.00 | 46 | 1015.1 |
| 20260503235701 | 57 | 234 | 1.0 | 2.0 | 0.00 | 0.00 | 0.00 | 42 | 1015.0 |
| 20260503235157 | 57 | 229 | 1.0 | 1.0 | 0.00 | 0.00 | 0.00 | 44 | 1015.1 |
| 20260503234655 | 57 | 237 | 1.0 | 1.0 | 0.00 | 0.00 | 0.00 | 42 | 1014.9 |
| 20260503234153 | 57 | 232 | 1.0 | 1.0 | 0.00 | 0.00 | 0.00 | 44 | 1015.1 |
| 20260503233649 | 57 | 243 | 0.0 | 1.0 | 0.00 | 0.00 | 0.00 | 42 | 1015.2 |
| 20260503233145 | 57 | 234 | 1.0 | 1.0 | 0.00 | 0.00 | 0.00 | 43 | 1014.9 |
| 20260503232642 | 57 | 253 | 1.0 | 2.0 | 0.00 | 0.00 | 0.00 | 41 | 1015.1 |
| 20260503232140 | 58 | 246 | 2.0 | 2.0 | 0.00 | 0.00 | 0.00 | 41 | 1015.2 |
| 20260503231638 | 58 | 252 | 2.0 | 2.0 | 0.00 | 0.00 | 0.00 | 39 | 1015.2 |
| 20260503231134 | 58 | 248 | 1.0 | 1.0 | 0.00 | 0.00 | 0.00 | 39 | 1015.3 |
| 20260503230631 | 58 | 227 | 2.0 | 3.0 | 0.00 | 0.00 | 0.00 | 40 | 1015.3 |
| 20260503230128 | 59 | 233 | 1.0 | 1.0 | 0.00 | 0.00 | 0.00 | 39 | 1015.4 |
| 20260503225626 | 59 | 251 | 1.0 | 1.0 | 0.00 | 0.00 | 0.00 | 38 | 1015.2 |
| 20260503225125 | 59 | 267 | 2.0 | 3.0 | 0.00 | 0.00 | 0.00 | 38 | 1015.3 |
| 20260503224623 | 59 | 213 | 3.0 | 3.0 | 0.00 | 0.00 | 0.00 | 37 | 1015.3 |
| 20260503224121 | 59 | 235 | 1.0 | 1.0 | 0.00 | 0.00 | 0.00 | 39 | 1015.1 |
| 20260503223618 | 60 | 259 | 3.0 | 3.0 | 0.00 | 0.00 | 0.00 | 37 | 1015.2 |
| 20260503223114 | 60 | 261 | 4.0 | 5.0 | 0.00 | 0.00 | 0.00 | 38 | 1015.2 |
| 20260503222612 | 60 | 255 | 3.0 | 5.0 | 0.00 | 0.00 | 0.00 | 37 | 1015.3 |
| 20260503222109 | 60 | 245 | 2.0 | 2.0 | 0.00 | 0.00 | 0.00 | 37 | 1015.3 |
| 20260503221607 | 60 | 268 | 2.0 | 2.0 | 0.00 | 0.00 | 0.00 | 38 | 1015.3 |
| 20260503221105 | 60 | 230 | 1.0 | 1.0 | 0.00 | 0.00 | 0.00 | 37 | 1015.3 |
| 20260503220601 | 60 | 252 | 1.0 | 1.0 | 0.00 | 0.00 | 0.00 | 37 | 1015.3 |
| 20260503220058 | 60 | 244 | 2.0 | 2.0 | 0.00 | 0.00 | 0.00 | 36 | 1015.5 |
| 20260503215555 | 61 | 220 | 1.0 | 2.0 | 0.00 | 0.00 | 0.00 | 36 | 1015.3 |
| 20260503215052 | 61 | 269 | 2.0 | 2.0 | 0.00 | 0.00 | 0.00 | 38 | 1015.1 |
| 20260503214550 | 60 | 255 | 0.0 | 0.0 | 0.00 | 0.00 | 0.00 | 37 | 1015.4 |
| 20260503214046 | 61 | 266 | 3.0 | 3.0 | 0.00 | 0.00 | 0.00 | 36 | 1015.2 |
| 20260503213545 | 63 | 235 | 2.0 | 2.0 | 0.00 | 0.00 | 0.00 | 35 | 1015.2 |
| 20260503213041 | 61 | 261 | 2.0 | 2.0 | 0.00 | 0.00 | 0.00 | 34 | 1015.2 |
| 20260503212538 | 61 | 246 | 0.0 | 0.0 | 0.00 | 0.00 | 0.00 | 37 | 1015.5 |
| 20260503212036 | 60 | 269 | 2.0 | 2.0 | 0.00 | 0.00 | 0.00 | 34 | 1015.3 |
| 20260503211533 | 62 | 234 | 2.0 | 3.0 | 0.00 | 0.00 | 0.00 | 36 | 1015.4 |
| 20260503211028 | 62 | 219 | 3.0 | 3.0 | 0.00 | 0.00 | 0.00 | 35 | 1015.3 |
| 20260503210525 | 61 | 255 | 3.0 | 3.0 | 0.00 | 0.00 | 0.00 | 35 | 1015.5 |
| 20260503210021 | 62 | 246 | 2.0 | 3.0 | 0.00 | 0.00 | 0.00 | 33 | 1015.5 |
| 20260503205518 | 62 | 230 | 2.0 | 3.0 | 0.00 | 0.00 | 0.00 | 33 | 1015.3 |
| 20260503205014 | 61 | 268 | 1.0 | 2.0 | 0.00 | 0.00 | 0.00 | 34 | 1015.6 |
| 20260503204511 | 62 | 256 | 3.0 | 6.0 | 0.00 | 0.00 | 0.00 | 34 | 1015.5 |
| 20260503204008 | 62 | 209 | 4.0 | 5.0 | 0.00 | 0.00 | 0.00 | 34 | 1015.7 |
| 20260503203506 | 62 | 247 | 1.0 | 2.0 | 0.00 | 0.00 | 0.00 | 35 | 1015.7 |
| 20260503203002 | 62 | 232 | 2.0 | 3.0 | 0.00 | 0.00 | 0.00 | 36 | 1015.9 |
| 20260503202500 | 62 | 294 | 2.0 | 2.0 | 0.00 | 0.00 | 0.00 | 35 | 1015.8 |
| 20260503201958 | 62 | 248 | 3.0 | 3.0 | 0.00 | 0.00 | 0.00 | 34 | 1016.0 |
| 20260503201456 | 61 | 254 | 2.0 | 2.0 | 0.00 | 0.00 | 0.00 | 34 | 1015.8 |
| 20260503200953 | 61 | 250 | 1.0 | 1.0 | 0.00 | 0.00 | 0.00 | 35 | 1016.0 |
| 20260503200449 | 62 | 268 | 3.0 | 3.0 | 0.00 | 0.00 | 0.00 | 33 | 1016.1 |
| 20260503195946 | 62 | 231 | 5.0 | 8.0 | 0.00 | 0.00 | 0.00 | 35 | 1016.1 |
| 20260503195443 | 61 | 253 | 2.0 | 2.0 | 0.00 | 0.00 | 0.00 | 35 | 1016.3 |
| 20260503194939 | 62 | 217 | 3.0 | 3.0 | 0.00 | 0.00 | 0.00 | 35 | 1016.3 |
| 20260503194437 | 61 | 245 | 3.0 | 3.0 | 0.00 | 0.00 | 0.00 | 35 | 1016.3 |
| 20260503193932 | 61 | 237 | 4.0 | 5.0 | 0.00 | 0.00 | 0.00 | 36 | 1016.6 |
| 20260503193428 | 59 | 218 | 2.0 | 2.0 | 0.00 | 0.00 | 0.00 | 36 | 1016.6 |
| 20260503192923 | 60 | 315 | 4.0 | 5.0 | 0.00 | 0.00 | 0.00 | 35 | 1016.9 |
| 20260503192420 | 61 | 231 | 4.0 | 6.0 | 0.00 | 0.00 | 0.00 | 35 | 1017.0 |
| 20260503191916 | 61 | 253 | 3.0 | 5.0 | 0.00 | 0.00 | 0.00 | 39 | 1016.9 |
| 20260503191414 | 61 | 249 | 2.0 | 5.0 | 0.00 | 0.00 | 0.00 | 35 | 1016.9 |
| 20260503190910 | 61 | 266 | 3.0 | 3.0 | 0.00 | 0.00 | 0.00 | 36 | 1016.9 |
| 20260503190407 | 60 | 239 | 1.0 | 2.0 | 0.00 | 0.00 | 0.00 | 37 | 1017.1 |
| 20260503185903 | 61 | 250 | 3.0 | 3.0 | 0.00 | 0.00 | 0.00 | 39 | 1017.1 |
| 20260503185400 | 61 | 237 | 3.0 | 3.0 | 0.00 | 0.00 | 0.00 | 39 | 1017.4 |
| 20260503184859 | 61 | 212 | 4.0 | 7.0 | 0.00 | 0.00 | 0.00 | 37 | 1017.1 |
| 20260503184356 | 60 | 256 | 3.0 | 3.0 | 0.00 | 0.00 | 0.00 | 38 | 1017.0 |
| 20260503183852 | 61 | 254 | 2.0 | 2.0 | 0.00 | 0.00 | 0.00 | 38 | 1017.1 |
| 20260503183349 | 59 | 208 | 4.0 | 5.0 | 0.00 | 0.00 | 0.00 | 38 | 1017.4 |
| 20260503182847 | 58 | 230 | 2.0 | 3.0 | 0.00 | 0.00 | 0.00 | 38 | 1017.4 |
| 20260503182346 | 60 | 341 | 3.0 | 5.0 | 0.00 | 0.00 | 0.00 | 37 | 1017.4 |
| 20260503181842 | 58 | 248 | 1.0 | 1.0 | 0.00 | 0.00 | 0.00 | 40 | 1017.5 |
| 20260503181339 | 60 | 230 | 2.0 | 2.0 | 0.00 | 0.00 | 0.00 | 36 | 1017.7 |
| 20260503180836 | 59 | 247 | 0.0 | 0.0 | 0.00 | 0.00 | 0.00 | 36 | 1017.5 |
| 20260503180334 | 58 | 253 | 2.0 | 2.0 | 0.00 | 0.00 | 0.00 | 40 | 1017.9 |
| 20260503175830 | 56 | 253 | 1.0 | 1.0 | 0.00 | 0.00 | 0.00 | 41 | 1017.6 |
| 20260503175328 | 58 | 210 | 4.0 | 5.0 | 0.00 | 0.00 | 0.00 | 38 | 1017.9 |
| 20260503174823 | 60 | 220 | 2.0 | 2.0 | 0.00 | 0.00 | 0.00 | 36 | 1017.9 |
| 20260503174322 | 60 | 254 | 3.0 | 3.0 | 0.00 | 0.00 | 0.00 | 38 | 1017.9 |
| 20260503173817 | 59 | 230 | 3.0 | 3.0 | 0.00 | 0.00 | 0.00 | 40 | 1017.9 |
| 20260503173313 | 58 | 248 | 3.0 | 3.0 | 0.00 | 0.00 | 0.00 | 39 | 1018.0 |
| 20260503172810 | 57 | 252 | 1.0 | 2.0 | 0.00 | 0.00 | 0.00 | 39 | 1018.2 |
| 20260503172308 | 57 | 235 | 3.0 | 5.0 | 0.00 | 0.00 | 0.00 | 40 | 1018.1 |
| 20260503171803 | 57 | 252 | 1.0 | 1.0 | 0.00 | 0.00 | 0.00 | 42 | 1018.2 |
| 20260503171301 | 57 | 254 | 1.0 | 2.0 | 0.00 | 0.00 | 0.00 | 39 | 1018.3 |
| 20260503170758 | 57 | 247 | 1.0 | 1.0 | 0.00 | 0.00 | 0.00 | 42 | 1018.4 |
| 20260503170254 | 57 | 253 | 3.0 | 5.0 | 0.00 | 0.00 | 0.00 | 44 | 1018.6 |
| 20260503160217 | 53 | 223 | 3.0 | 3.0 | 0.00 | 0.00 | 0.00 | 47 | 1019.3 |
| 20260503150647 | 50 | 260 | 3.0 | 3.0 | 0.00 | 0.00 | 0.00 | 51 | 1019.6 |
| 20260503150143 | 49 | 204 | 2.0 | 2.0 | 0.00 | 0.00 | 0.00 | 52 | 1019.7 |
| 20260503140107 | 47 | 213 | 2.0 | 2.0 | 0.00 | 0.00 | 0.00 | 62 | 1019.8 |
| 20260503131037 | 44 | 232 | 2.0 | 3.0 | 0.00 | 0.00 | 0.00 | 77 | 1019.8 |
| 20260503130533 | 43 | 254 | 0.0 | 1.0 | 0.00 | 0.00 | 0.00 | 76 | 1019.9 |